SAS987 EKCH-RKSI

Flight info

Callsign SAS987
Flight time N/A
Altitude 35000
Route SIMEG Z493 BILRA DCT XELOL DCT BADNO DCT NAXAR DCT KELEL DCT KEKED DCT BADOR DCT LUGEB/N0485F370 DCT UDROS UM859 KARDE UN644 ROLIN DCT TAGAR DCT BT DCT BARAD M747 SUBUT T916 LEYLA N161 GASBI/K0902F370 N161 MASAV/K0896F390 N161 SARIN/K0896S1190 A368 FKG W188 LIKMI W270 BOTKI/K0895S1250 W270 DKO W69 HUR B339 LADIX W34 VAPGU W100 ORAVA W201 UNSEK A326 DONVO G597 AGAVO/N0489F410 Y644 REBIT REBIT2H
Aircraft A359/H-SDE2E3GHIJ3J4J5LM1ORWXY/LB1D1

Departure

Time N/A
Airport Copenhagen Kastrup Airport (EKCH)

Arrival

Time 2026-05-05 06:06
Airport Incheon International Airport (RKSI)
Time Latitude Longitude Altitude Speed Heading
2026-05-05 05:36 37.30297 123.77427 41021 ft 519 kts 129°
2026-05-05 05:36 37.28119 123.81042 41026 ft 519 kts 129°
2026-05-05 05:37 37.23750 123.88284 41026 ft 519 kts 129°
2026-05-05 05:37 37.19631 123.95729 41023 ft 522 kts 119°
2026-05-05 05:38 37.17269 124.04317 41034 ft 524 kts 98°
2026-05-05 05:38 37.17058 124.13454 41039 ft 524 kts 87°
2026-05-05 05:39 37.17409 124.22511 40596 ft 520 kts 86°
2026-05-05 05:39 37.17613 124.27052 39838 ft 523 kts 86°
2026-05-05 05:39 37.17782 124.31615 39129 ft 524 kts 87°
2026-05-05 05:40 37.17914 124.36180 38405 ft 525 kts 88°
2026-05-05 05:40 37.18027 124.40748 37620 ft 523 kts 88°
2026-05-05 05:40 37.18133 124.45301 36877 ft 522 kts 88°
2026-05-05 05:40 37.18232 124.49841 36178 ft 519 kts 88°
2026-05-05 05:41 37.18329 124.54356 35442 ft 517 kts 88°
2026-05-05 05:41 37.18424 124.58859 34703 ft 515 kts 88°
2026-05-05 05:41 37.18520 124.63348 33941 ft 514 kts 88°
2026-05-05 05:41 37.18616 124.67820 33042 ft 513 kts 88°
2026-05-05 05:42 37.18712 124.72307 32058 ft 514 kts 88°
2026-05-05 05:42 37.18805 124.76748 31101 ft 502 kts 88°
2026-05-05 05:42 37.18894 124.81043 29607 ft 497 kts 88°
2026-05-05 05:42 37.18983 124.85334 28559 ft 482 kts 88°
2026-05-05 05:43 37.19064 124.89442 27981 ft 459 kts 88°
2026-05-05 05:43 37.19141 124.93412 27395 ft 455 kts 88°
2026-05-05 05:43 37.19217 124.97380 26799 ft 455 kts 88°
2026-05-05 05:43 37.19292 125.01342 26186 ft 452 kts 88°
2026-05-05 05:44 37.19364 125.05264 25582 ft 448 kts 88°
2026-05-05 05:44 37.19435 125.09151 24980 ft 444 kts 88°
2026-05-05 05:44 37.19504 125.13010 24389 ft 440 kts 88°
2026-05-05 05:44 37.19571 125.16822 23810 ft 436 kts 88°
2026-05-05 05:45 37.19637 125.20604 23141 ft 432 kts 88°
2026-05-05 05:45 37.19701 125.24356 22528 ft 428 kts 88°
2026-05-05 05:45 37.19762 125.28027 21948 ft 425 kts 88°
2026-05-05 05:45 37.19823 125.31719 21354 ft 421 kts 89°
2026-05-05 05:46 37.19882 125.35378 20763 ft 418 kts 89°
2026-05-05 05:46 37.19939 125.39001 20172 ft 414 kts 89°
2026-05-05 05:46 37.19995 125.42602 19566 ft 411 kts 89°
2026-05-05 05:46 37.20104 125.46176 18966 ft 407 kts 84°
2026-05-05 05:47 37.20738 125.49611 18378 ft 404 kts 68°
2026-05-05 05:47 37.22021 125.52726 17720 ft 400 kts 59°
2026-05-05 05:47 37.23478 125.55695 17097 ft 398 kts 58°
2026-05-05 05:47 37.24964 125.58676 16659 ft 410 kts 58°
2026-05-05 05:48 37.26482 125.61740 16212 ft 414 kts 58°
2026-05-05 05:48 37.27993 125.64804 15735 ft 413 kts 59°
2026-05-05 05:48 37.29502 125.67874 15275 ft 411 kts 59°
2026-05-05 05:48 37.30938 125.70805 15014 ft 385 kts 59°
2026-05-05 05:49 37.32229 125.73602 14710 ft 356 kts 65°
2026-05-05 05:49 37.32910 125.76471 14334 ft 332 kts 85°
2026-05-05 05:49 37.32851 125.79280 13879 ft 314 kts 100°
2026-05-05 05:49 37.32508 125.81919 13597 ft 303 kts 101°
2026-05-05 05:50 37.32261 125.83637 13318 ft 298 kts 101°
2026-05-05 05:50 37.31890 125.86220 13039 ft 303 kts 102°
2026-05-05 05:50 37.31524 125.88793 12650 ft 299 kts 101°
2026-05-05 05:50 37.30944 125.91316 12370 ft 301 kts 116°
2026-05-05 05:51 37.29843 125.93490 12021 ft 296 kts 129°
2026-05-05 05:51 37.28556 125.95502 11626 ft 292 kts 131°
2026-05-05 05:51 37.27251 125.97492 11371 ft 297 kts 131°
2026-05-05 05:51 37.25951 125.99483 10958 ft 291 kts 131°
2026-05-05 05:52 37.24773 126.01591 10702 ft 299 kts 118°
2026-05-05 05:52 37.24264 126.04090 10180 ft 297 kts 90°
2026-05-05 05:52 37.24786 126.06576 9460 ft 298 kts 60°
2026-05-05 05:52 37.25931 126.08746 9051 ft 300 kts 53°
2026-05-05 05:53 37.27192 126.10821 8953 ft 298 kts 48°
2026-05-05 05:53 37.28877 126.12283 8967 ft 293 kts 17°
2026-05-05 05:53 37.30755 126.12445 8951 ft 259 kts 343°
2026-05-05 05:53 37.32284 126.11443 8968 ft 240 kts 320°
2026-05-05 05:54 37.33576 126.10164 8953 ft 238 kts 318°
2026-05-05 05:54 37.34847 126.08905 8562 ft 232 kts 319°
2026-05-05 05:54 37.36142 126.07665 8307 ft 237 kts 320°
2026-05-05 05:54 37.37467 126.06429 8191 ft 238 kts 321°
2026-05-05 05:55 37.38802 126.05206 8078 ft 237 kts 321°
2026-05-05 05:55 37.40137 126.03998 7973 ft 236 kts 321°
2026-05-05 05:55 37.41479 126.02795 7858 ft 236 kts 321°
2026-05-05 05:55 37.42818 126.01609 7740 ft 234 kts 324°
2026-05-05 05:56 37.44350 126.00847 7638 ft 242 kts 351°
2026-05-05 05:56 37.45997 126.01215 7532 ft 246 kts 27°
2026-05-05 05:56 37.47264 126.02654 7429 ft 248 kts 51°
2026-05-05 05:56 37.48280 126.04418 7312 ft 249 kts 55°
2026-05-05 05:57 37.49249 126.06200 7193 ft 247 kts 56°
2026-05-05 05:57 37.49807 126.07610 7115 ft 249 kts 73°
2026-05-05 05:57 37.49882 126.09610 7026 ft 244 kts 107°
2026-05-05 05:57 37.49061 126.11401 6913 ft 236 kts 140°
2026-05-05 05:58 37.47799 126.12669 6813 ft 234 kts 148°
2026-05-05 05:58 37.46610 126.14088 6513 ft 242 kts 130°
2026-05-05 05:58 37.45949 126.16076 6158 ft 259 kts 98°
2026-05-05 05:58 37.46225 126.18349 5950 ft 267 kts 65°
2026-05-05 05:59 37.47446 126.20104 5435 ft 276 kts 29°
2026-05-05 05:59 37.49296 126.20716 5151 ft 277 kts 355°
2026-05-05 05:59 37.51203 126.20447 4868 ft 276 kts 349°
2026-05-05 05:59 37.53114 126.20163 4578 ft 277 kts 352°
2026-05-05 06:00 37.55046 126.20032 4283 ft 277 kts 358°
2026-05-05 06:00 37.56922 126.20603 4000 ft 282 kts 29°
2026-05-05 06:00 37.58320 126.22229 3891 ft 268 kts 53°
2026-05-05 06:00 37.59399 126.24071 3771 ft 255 kts 56°
2026-05-05 06:01 37.60396 126.25855 3640 ft 242 kts 56°
2026-05-05 06:01 37.61342 126.27547 3541 ft 231 kts 57°
2026-05-05 06:01 37.62128 126.29239 3444 ft 215 kts 74°
2026-05-05 06:01 37.62189 126.30982 3324 ft 188 kts 113°
2026-05-05 06:02 37.61550 126.32266 3205 ft 168 kts 144°
2026-05-05 06:02 37.60639 126.33093 3100 ft 157 kts 151°
2026-05-05 06:02 37.59739 126.33867 2861 ft 157 kts 152°
2026-05-05 06:02 37.58854 126.34670 2613 ft 156 kts 152°
2026-05-05 06:03 37.57971 126.35462 2413 ft 156 kts 152°
2026-05-05 06:03 37.57089 126.36249 2204 ft 155 kts 152°
2026-05-05 06:03 37.56214 126.37033 1975 ft 154 kts 152°
2026-05-05 06:03 37.55345 126.37810 1782 ft 153 kts 153°
2026-05-05 06:04 37.54478 126.38584 1550 ft 149 kts 152°
2026-05-05 06:04 37.53663 126.39315 1364 ft 138 kts 151°
2026-05-05 06:04 37.52898 126.39994 1177 ft 131 kts 153°
2026-05-05 06:04 37.52141 126.40657 1047 ft 133 kts 150°
2026-05-05 06:05 37.51394 126.41341 852 ft 133 kts 148°
2026-05-05 06:05 37.50645 126.42036 661 ft 133 kts 149°
2026-05-05 06:05 37.49898 126.42704 435 ft 134 kts 149°
2026-05-05 06:05 37.49126 126.43374 264 ft 134 kts 150°
2026-05-05 06:06 37.48358 126.44055 69 ft 135 kts 149°
2026-05-05 06:06 37.47630 126.44697 39 ft 113 kts 145°
2026-05-05 06:06 37.47096 126.45174 39 ft 67 kts 145°
2026-05-05 06:06 37.46796 126.45437 38 ft 38 kts 145°
2026-05-05 06:07 37.46585 126.45580 39 ft 30 kts 163°
2026-05-05 06:07 37.46442 126.45597 39 ft 14 kts 197°
2026-05-05 06:07 37.46371 126.45505 39 ft 16 kts 233°
2026-05-05 06:07 37.46303 126.45387 39 ft 18 kts 234°
2026-05-05 06:08 37.46227 126.45250 39 ft 19 kts 233°
2026-05-05 06:08 37.46204 126.45141 39 ft 13 kts 296°
2026-05-05 06:08 37.46280 126.45059 39 ft 16 kts 325°
2026-05-05 06:08 37.46377 126.44972 39 ft 18 kts 322°
2026-05-05 06:09 37.46488 126.44873 39 ft 21 kts 326°
2026-05-05 06:09 37.46609 126.44764 39 ft 21 kts 324°
2026-05-05 06:09 37.46727 126.44659 39 ft 21 kts 324°
2026-05-05 06:09 37.46853 126.44548 39 ft 23 kts 326°
2026-05-05 06:10 37.46990 126.44426 39 ft 25 kts 324°
2026-05-05 06:10 37.47079 126.44331 39 ft 14 kts 297°
2026-05-05 06:10 37.47051 126.44223 39 ft 15 kts 232°
2026-05-05 06:10 37.46990 126.44119 39 ft 12 kts 234°
2026-05-05 06:11 37.46947 126.44089 39 ft 7 kts 177°
2026-05-05 06:11 37.46899 126.44129 39 ft 10 kts 134°
2026-05-05 06:11 37.46845 126.44201 39 ft 13 kts 134°
2026-05-05 06:11 37.46770 126.44284 39 ft 16 kts 143°
2026-05-05 06:12 37.46680 126.44365 39 ft 14 kts 144°
2026-05-05 06:12 37.46608 126.44394 39 ft 10 kts 208°
2026-05-05 06:12 37.46556 126.44319 39 ft 13 kts 234°
2026-05-05 06:12 37.46500 126.44220 39 ft 15 kts 234°
2026-05-05 06:13 37.46442 126.44117 39 ft 12 kts 236°
2026-05-05 06:13 37.46440 126.44021 39 ft 11 kts 310°
2026-05-05 06:13 37.46499 126.44018 39 ft 7 kts 14°
2026-05-05 06:13 37.46545 126.44040 39 ft 7 kts 24°
2026-05-05 06:14 37.46569 126.44054 39 ft 4 kts 24°
2026-05-05 06:14 37.46573 126.44056 39 ft 0 kts 24°